Weather History for Del Rio Laughlin AFB, TX

Change the Weather History Date:

Friday, April 11, 2014

  Actual Average Record
Temperature  
Mean Temperature 74 °F -  
Max Temperature 87 °F 82 °F 93 °F (2002)
Min Temperature 60 °F 59 °F 51 °F (1997)
Cooling Degree Days 8    
Growing Degree Days 24 (Base 50)    
Moisture  
Dew Point 55 °F    
Average Humidity 53    
Maximum Humidity 85    
Minimum Humidity 31    
Precipitation  
Precipitation 0.00 in - - ()
Sea Level Pressure  
Sea Level Pressure 29.90 in    
Wind  
Wind Speed 11 mph (SE)    
Max Wind Speed 17 mph    
Max Gust Speed -    
Visibility 10 miles    
Events      
Averages and records for this station are not official NWS values.
T = Trace of Precipitation, MM = Missing Value Source: NWS Daily Summary

Daily Weather History Graph

Daily Weather History Graph

Search for Another Location

Airport:

Trip Planner

Search our weather history database for the weather conditions in past years. The results will help you decide how hot, cold, wet, or windy it might be!

Date:

Astronomy

Apr. 11, 2014 Rise Set
Actual Time 7:21 AM CDT 8:07 PM CDT
Civil Twilight 6:57 AM CDT 8:31 PM CDT
Nautical Twilight 6:28 AM CDT 9:00 PM CDT
Astronomical Twilight 5:59 AM CDT 9:29 PM CDT
Moon 5:03 PM CDT (4/11) 5:01 AM CDT (4/11)
Length of Visible Light 13h 34m
Length of Day
12h 46m
Waxing Gibbous, 87% of the Moon is Illuminated
Apr 11
Waxing Gibbous
Apr 15
Full
Apr 22
Last Quarter
Apr 29
New
May 6
First Quarter

Hourly Weather History & Observations

Time (CDT) Temp. Heat Index Dew Point Humidity Pressure Visibility Wind Dir Wind Speed Gust Speed Precip Events Conditions
12:58 AM 71.2 °F - 48.6 °F 45% 29.91 in 10.0 mi SE 10.4 mph - N/A   Clear
1:58 AM 70.0 °F - 52.9 °F 55% 29.91 in 10.0 mi SE 10.4 mph - N/A   Clear
2:58 AM 69.3 °F - 55.0 °F 60% 29.90 in 10.0 mi SE 12.7 mph - N/A   Clear
3:58 AM 67.5 °F - 54.7 °F 64% 29.89 in 10.0 mi ESE 16.1 mph - N/A   Clear
4:58 AM 64.2 °F - 56.1 °F 75% 29.91 in 10.0 mi ESE 11.5 mph - N/A   Clear
5:58 AM 62.8 °F - 55.6 °F 77% 29.91 in 10.0 mi ESE 12.7 mph - N/A   Clear
6:58 AM 61.0 °F - 55.9 °F 83% 29.92 in 10.0 mi ESE 10.4 mph - N/A   Clear
7:58 AM 60.6 °F - 56.1 °F 85% 29.95 in 10.0 mi ESE 10.4 mph - N/A   Clear
8:58 AM 62.8 °F - 57.0 °F 81% 29.96 in 10.0 mi ESE 13.8 mph - N/A   Clear
9:58 AM 66.6 °F - 57.6 °F 73% 29.97 in 10.0 mi SE 10.4 mph - N/A   Clear
10:58 AM 71.1 °F - 58.1 °F 63% 29.98 in 10.0 mi South 9.2 mph - N/A   Clear
11:58 AM 73.6 °F - 58.1 °F 58% 29.97 in 10.0 mi SSE 8.1 mph - N/A   Scattered Clouds
12:58 PM 77.9 °F - 58.1 °F 50% 29.95 in 10.0 mi SSE 5.8 mph - N/A   Mostly Cloudy
1:58 PM 81.9 °F 81.7 °F 57.6 °F 43% 29.91 in 10.0 mi ESE 5.8 mph - N/A   Scattered Clouds
2:58 PM 84.4 °F 83.2 °F 55.8 °F 37% 29.88 in 10.0 mi South 10.4 mph - N/A   Scattered Clouds
3:58 PM 87.8 °F 86.1 °F 55.0 °F 33% 29.84 in 10.0 mi SSE 10.4 mph - N/A   Mostly Cloudy
4:07 PM 87.8 °F 86.1 °F 55.4 °F 33% 29.87 in 10.0 mi South 15.0 mph - N/A   Overcast
4:58 PM 87.6 °F 85.7 °F 54.0 °F 32% 29.83 in 10.0 mi South 13.8 mph - N/A   Mostly Cloudy
5:58 PM 87.8 °F 85.7 °F 54.0 °F 31% 29.81 in 10.0 mi SSE 12.7 mph - N/A   Mostly Cloudy
6:58 PM 86.5 °F 84.6 °F 53.1 °F 32% 29.82 in 10.0 mi SSE 12.7 mph - N/A   Partly Cloudy
7:58 PM 83.5 °F 82.1 °F 53.4 °F 35% 29.84 in 10.0 mi SE 6.9 mph - N/A   Clear
8:58 PM 79.3 °F - 54.1 °F 42% 29.85 in 10.0 mi ESE 8.1 mph - N/A   Clear
9:58 PM 75.6 °F - 53.6 °F 46% 29.86 in 10.0 mi ESE 8.1 mph - N/A   Clear
10:58 PM 74.3 °F - 52.7 °F 47% 29.87 in 10.0 mi ESE 9.2 mph - N/A   Scattered Clouds
11:58 PM 75.9 °F - 52.3 °F 44% 29.87 in 10.0 mi SE 17.3 mph - N/A   Clear